Year,Month,Day,Hour,Minute,Value (Times are PST for insolation in W/m^2)
2023,03,27,00,00,0.00
2023,03,27,00,01,0.00
2023,03,27,00,02,0.00
2023,03,27,00,03,0.00
2023,03,27,00,04,0.00
2023,03,27,00,05,0.00
2023,03,27,00,06,0.00
2023,03,27,00,07,0.00
2023,03,27,00,08,0.00
2023,03,27,00,09,0.00
2023,03,27,00,10,0.00
2023,03,27,00,11,0.00
2023,03,27,00,12,0.00
2023,03,27,00,13,0.00
2023,03,27,00,14,0.00
2023,03,27,00,15,0.00
2023,03,27,00,16,0.00
2023,03,27,00,17,0.00
2023,03,27,00,18,0.00
2023,03,27,00,19,0.00
2023,03,27,00,20,0.00
2023,03,27,00,21,0.00
2023,03,27,00,22,0.00
2023,03,27,00,23,0.00
2023,03,27,00,24,0.00
2023,03,27,00,25,0.00
2023,03,27,00,26,0.00
2023,03,27,00,27,0.00
2023,03,27,00,28,0.00
2023,03,27,00,29,0.00
2023,03,27,00,30,0.00
2023,03,27,00,31,0.00
2023,03,27,00,32,0.00
2023,03,27,00,33,0.00
2023,03,27,00,34,0.00
2023,03,27,00,35,0.00
2023,03,27,00,36,0.00
2023,03,27,00,37,0.00
2023,03,27,00,38,0.00
2023,03,27,00,39,0.00
2023,03,27,00,40,0.00
2023,03,27,00,41,0.00
2023,03,27,00,42,0.00
2023,03,27,00,43,0.00
2023,03,27,00,44,0.00
2023,03,27,00,45,0.00
2023,03,27,00,46,0.00
2023,03,27,00,47,0.00
2023,03,27,00,48,0.00
2023,03,27,00,49,0.00
2023,03,27,00,50,0.00
2023,03,27,00,51,0.00
2023,03,27,00,52,0.00
2023,03,27,00,53,0.00
2023,03,27,00,54,0.00
2023,03,27,00,55,0.00
2023,03,27,00,56,0.00
2023,03,27,00,57,0.00
2023,03,27,00,58,0.00
2023,03,27,00,59,0.00
2023,03,27,01,00,0.00
2023,03,27,01,01,0.00
2023,03,27,01,02,0.00
2023,03,27,01,03,0.00
2023,03,27,01,04,0.00
2023,03,27,01,05,0.00
2023,03,27,01,06,0.00
2023,03,27,01,07,0.00
2023,03,27,01,08,0.00
2023,03,27,01,09,0.00
2023,03,27,01,10,0.00
2023,03,27,01,11,0.00
2023,03,27,01,12,0.00
2023,03,27,01,13,0.00
2023,03,27,01,14,0.00
2023,03,27,01,15,0.00
2023,03,27,01,16,0.00
2023,03,27,01,17,0.00
2023,03,27,01,18,0.00
2023,03,27,01,19,0.00
2023,03,27,01,20,0.00
2023,03,27,01,21,0.00
2023,03,27,01,22,0.00
2023,03,27,01,23,0.00
2023,03,27,01,24,0.00
2023,03,27,01,25,0.00
2023,03,27,01,26,0.00
2023,03,27,01,27,0.00
2023,03,27,01,28,0.00
2023,03,27,01,29,0.00
2023,03,27,01,30,0.00
2023,03,27,01,31,0.00
2023,03,27,01,32,0.00
2023,03,27,01,33,0.00
2023,03,27,01,34,0.00
2023,03,27,01,35,0.00
2023,03,27,01,36,0.00
2023,03,27,01,37,0.00
2023,03,27,01,38,0.00
2023,03,27,01,39,0.00
2023,03,27,01,40,0.00
2023,03,27,01,41,0.00
2023,03,27,01,42,0.00
2023,03,27,01,43,0.00
2023,03,27,01,44,0.00
2023,03,27,01,45,0.00
2023,03,27,01,46,0.00
2023,03,27,01,47,0.00
2023,03,27,01,48,0.00
2023,03,27,01,49,0.00
2023,03,27,01,50,0.00
2023,03,27,01,51,0.00
2023,03,27,01,52,0.00
2023,03,27,01,53,0.00
2023,03,27,01,54,0.00
2023,03,27,01,55,0.00
2023,03,27,01,56,0.00
2023,03,27,01,57,0.00
2023,03,27,01,58,0.00
2023,03,27,01,59,0.00
2023,03,27,02,00,0.00
2023,03,27,02,01,0.00
2023,03,27,02,02,0.00
2023,03,27,02,03,0.00
2023,03,27,02,04,0.00
2023,03,27,02,05,0.00
2023,03,27,02,06,0.00
2023,03,27,02,07,0.00
2023,03,27,02,08,0.00
2023,03,27,02,09,0.00
2023,03,27,02,10,0.00
2023,03,27,02,11,0.00
2023,03,27,02,12,0.00
2023,03,27,02,13,0.00
2023,03,27,02,14,0.00
2023,03,27,02,15,0.00
2023,03,27,02,16,0.00
2023,03,27,02,17,0.00
2023,03,27,02,18,0.00
2023,03,27,02,19,0.00
2023,03,27,02,20,0.00
2023,03,27,02,21,0.00
2023,03,27,02,22,0.00
2023,03,27,02,23,0.00
2023,03,27,02,24,0.00
2023,03,27,02,25,0.00
2023,03,27,02,26,0.00
2023,03,27,02,27,0.00
2023,03,27,02,28,0.00
2023,03,27,02,29,0.00
2023,03,27,02,30,0.00
2023,03,27,02,31,0.00
2023,03,27,02,32,0.00
2023,03,27,02,33,0.00
2023,03,27,02,34,0.00
2023,03,27,02,35,0.00
2023,03,27,02,36,0.00
2023,03,27,02,37,0.00
2023,03,27,02,38,0.00
2023,03,27,02,39,0.00
2023,03,27,02,40,0.00
2023,03,27,02,41,0.00
2023,03,27,02,42,0.00
2023,03,27,02,43,0.00
2023,03,27,02,44,0.00
2023,03,27,02,45,0.00
2023,03,27,02,46,0.00
2023,03,27,02,47,0.00
2023,03,27,02,48,0.00
2023,03,27,02,49,0.00
2023,03,27,02,50,0.00
2023,03,27,02,51,0.00
2023,03,27,02,52,0.00
2023,03,27,02,53,0.00
2023,03,27,02,54,0.00
2023,03,27,02,55,0.00
2023,03,27,02,56,0.00
2023,03,27,02,57,0.00
2023,03,27,02,58,0.00
2023,03,27,02,59,0.00
2023,03,27,03,00,0.00
2023,03,27,03,01,0.00
2023,03,27,03,02,0.00
2023,03,27,03,03,0.00
2023,03,27,03,04,0.00
2023,03,27,03,05,0.00
2023,03,27,03,06,0.00
2023,03,27,03,07,0.00
2023,03,27,03,08,0.00
2023,03,27,03,09,0.00
2023,03,27,03,10,0.00
2023,03,27,03,11,0.00
2023,03,27,03,12,0.00
2023,03,27,03,13,0.00
2023,03,27,03,14,0.00
2023,03,27,03,15,0.00
2023,03,27,03,16,0.00
2023,03,27,03,17,0.00
2023,03,27,03,18,0.00
2023,03,27,03,19,0.00
2023,03,27,03,20,0.00
2023,03,27,03,21,0.00
2023,03,27,03,22,0.00
2023,03,27,03,23,0.00
2023,03,27,03,24,0.00
2023,03,27,03,25,0.00
2023,03,27,03,26,0.00
2023,03,27,03,27,0.00
2023,03,27,03,28,0.00
2023,03,27,03,29,0.00
2023,03,27,03,30,0.00
2023,03,27,03,31,0.00
2023,03,27,03,32,0.00
2023,03,27,03,33,0.00
2023,03,27,03,34,0.00
2023,03,27,03,35,0.00
2023,03,27,03,36,0.00
2023,03,27,03,37,0.00
2023,03,27,03,38,0.00
2023,03,27,03,39,0.00
2023,03,27,03,40,0.00
2023,03,27,03,41,0.00
2023,03,27,03,42,0.00
2023,03,27,03,43,0.00
2023,03,27,03,44,0.00
2023,03,27,03,45,0.00
2023,03,27,03,46,0.00
2023,03,27,03,47,0.00
2023,03,27,03,48,0.00
2023,03,27,03,49,0.00
2023,03,27,03,50,0.00
2023,03,27,03,51,0.00
2023,03,27,03,52,0.00
2023,03,27,03,53,0.00
2023,03,27,03,54,0.00
2023,03,27,03,55,0.00
2023,03,27,03,56,0.00
2023,03,27,03,57,0.00
2023,03,27,03,58,0.00
2023,03,27,03,59,0.00
2023,03,27,04,00,0.00
2023,03,27,04,01,0.00
2023,03,27,04,02,0.00
2023,03,27,04,03,0.00
2023,03,27,04,04,0.00
2023,03,27,04,05,0.00
2023,03,27,04,06,0.00
2023,03,27,04,07,0.00
2023,03,27,04,08,0.00
2023,03,27,04,09,0.00
2023,03,27,04,10,0.00
2023,03,27,04,11,0.00
2023,03,27,04,12,0.00
2023,03,27,04,13,0.00
2023,03,27,04,14,0.00
2023,03,27,04,15,0.00
2023,03,27,04,16,0.00
2023,03,27,04,17,0.00
2023,03,27,04,18,0.00
2023,03,27,04,19,0.00
2023,03,27,04,20,0.00
2023,03,27,04,21,0.00
2023,03,27,04,22,0.00
2023,03,27,04,23,0.00
2023,03,27,04,24,0.00
2023,03,27,04,25,0.00
2023,03,27,04,26,0.00
2023,03,27,04,27,0.00
2023,03,27,04,28,0.00
2023,03,27,04,29,0.00
2023,03,27,04,30,0.00
2023,03,27,04,31,0.00
2023,03,27,04,32,0.00
2023,03,27,04,33,0.00
2023,03,27,04,34,0.00
2023,03,27,04,35,0.00
2023,03,27,04,36,0.00
2023,03,27,04,37,0.00
2023,03,27,04,38,0.00
2023,03,27,04,39,0.00
2023,03,27,04,40,0.00
2023,03,27,04,41,0.00
2023,03,27,04,42,0.00
2023,03,27,04,43,0.00
2023,03,27,04,44,0.00
2023,03,27,04,45,0.00
2023,03,27,04,46,0.00
2023,03,27,04,47,0.00
2023,03,27,04,48,0.00
2023,03,27,04,49,0.00
2023,03,27,04,50,0.00
2023,03,27,04,51,0.00
2023,03,27,04,52,0.00
2023,03,27,04,53,0.00
2023,03,27,04,54,0.00
2023,03,27,04,55,0.00
2023,03,27,04,56,0.00
2023,03,27,04,57,0.00
2023,03,27,04,58,0.00
2023,03,27,04,59,0.00
2023,03,27,05,00,0.00
2023,03,27,05,01,0.00
2023,03,27,05,02,0.00
2023,03,27,05,03,0.00
2023,03,27,05,04,0.00
2023,03,27,05,05,0.00
2023,03,27,05,06,0.00
2023,03,27,05,07,0.00
2023,03,27,05,08,0.00
2023,03,27,05,09,0.00
2023,03,27,05,10,0.00
2023,03,27,05,11,0.00
2023,03,27,05,12,0.00
2023,03,27,05,13,0.00
2023,03,27,05,14,0.00
2023,03,27,05,15,0.00
2023,03,27,05,16,0.00
2023,03,27,05,17,0.00
2023,03,27,05,18,0.00
2023,03,27,05,19,0.00
2023,03,27,05,20,0.00
2023,03,27,05,21,0.00
2023,03,27,05,22,0.00
2023,03,27,05,23,0.00
2023,03,27,05,24,0.00
2023,03,27,05,25,0.00
2023,03,27,05,26,0.00
2023,03,27,05,27,0.00
2023,03,27,05,28,0.00
2023,03,27,05,29,0.00
2023,03,27,05,30,0.00
2023,03,27,05,31,0.00
2023,03,27,05,32,0.00
2023,03,27,05,33,0.00
2023,03,27,05,34,0.00
2023,03,27,05,35,0.00
2023,03,27,05,36,0.00
2023,03,27,05,37,0.00
2023,03,27,05,38,0.00
2023,03,27,05,39,0.00
2023,03,27,05,40,0.00
2023,03,27,05,41,0.00
2023,03,27,05,42,0.00
2023,03,27,05,43,0.00
2023,03,27,05,44,0.00
2023,03,27,05,45,0.00
2023,03,27,05,46,0.00
2023,03,27,05,47,0.00
2023,03,27,05,48,0.00
2023,03,27,05,49,0.00
2023,03,27,05,50,0.00
2023,03,27,05,51,0.00
2023,03,27,05,52,0.00
2023,03,27,05,53,0.00
2023,03,27,05,54,0.00
2023,03,27,05,55,0.00
2023,03,27,05,56,0.00
2023,03,27,05,57,0.00
2023,03,27,05,58,0.00
2023,03,27,05,59,0.00
2023,03,27,06,00,0.00
2023,03,27,06,01,0.00
2023,03,27,06,02,0.00
2023,03,27,06,03,0.00
2023,03,27,06,04,0.00
2023,03,27,06,05,0.00
2023,03,27,06,06,0.00
2023,03,27,06,07,0.00
2023,03,27,06,08,0.00
2023,03,27,06,09,0.00
2023,03,27,06,10,0.00
2023,03,27,06,11,0.00
2023,03,27,06,12,0.00
2023,03,27,06,13,0.00
2023,03,27,06,14,0.00
2023,03,27,06,15,0.00
2023,03,27,06,16,0.00
2023,03,27,06,17,0.00
2023,03,27,06,18,0.00
2023,03,27,06,19,0.00
2023,03,27,06,20,0.00
2023,03,27,06,21,0.00
2023,03,27,06,22,0.00
2023,03,27,06,23,0.00
2023,03,27,06,24,0.00
2023,03,27,06,25,0.00
2023,03,27,06,26,0.00
2023,03,27,06,27,0.00
2023,03,27,06,28,0.00
2023,03,27,06,29,0.00
2023,03,27,06,30,0.00
2023,03,27,06,31,0.00
2023,03,27,06,32,0.00
2023,03,27,06,33,0.00
2023,03,27,06,34,0.00
2023,03,27,06,35,0.00
2023,03,27,06,36,0.00
2023,03,27,06,37,0.00
2023,03,27,06,38,0.00
2023,03,27,06,39,0.00
2023,03,27,06,40,0.00
2023,03,27,06,41,0.00
2023,03,27,06,42,0.00
2023,03,27,06,43,0.00
2023,03,27,06,44,0.00
2023,03,27,06,45,0.00
2023,03,27,06,46,0.00
2023,03,27,06,47,0.00
2023,03,27,06,48,0.00
2023,03,27,06,49,0.00
2023,03,27,06,50,0.00
2023,03,27,06,51,0.00
2023,03,27,06,52,0.00
2023,03,27,06,53,0.00
2023,03,27,06,54,0.00
2023,03,27,06,55,0.00
2023,03,27,06,56,0.00
2023,03,27,06,57,0.00
2023,03,27,06,58,0.00
2023,03,27,06,59,0.00
2023,03,27,07,00,0.00
2023,03,27,07,01,0.00
2023,03,27,07,02,0.00
2023,03,27,07,03,0.00
2023,03,27,07,04,0.00
2023,03,27,07,05,0.00
2023,03,27,07,06,0.00
2023,03,27,07,07,0.00
2023,03,27,07,08,0.00
2023,03,27,07,09,2.70
2023,03,27,07,10,5.00
2023,03,27,07,11,5.00
2023,03,27,07,12,5.00
2023,03,27,07,13,5.00
2023,03,27,07,14,5.00
2023,03,27,07,15,5.00
2023,03,27,07,16,5.00
2023,03,27,07,17,6.40
2023,03,27,07,18,7.00
2023,03,27,07,19,7.00
2023,03,27,07,20,7.00
2023,03,27,07,21,7.00
2023,03,27,07,22,7.00
2023,03,27,07,23,7.00
2023,03,27,07,24,8.40
2023,03,27,07,25,9.00
2023,03,27,07,26,9.00
2023,03,27,07,27,9.00
2023,03,27,07,28,9.00
2023,03,27,07,29,9.00
2023,03,27,07,30,9.00
2023,03,27,07,31,10.40
2023,03,27,07,32,11.00
2023,03,27,07,33,11.00
2023,03,27,07,34,11.00
2023,03,27,07,35,11.00
2023,03,27,07,36,11.00
2023,03,27,07,37,11.00
2023,03,27,07,38,11.00
2023,03,27,07,39,11.80
2023,03,27,07,40,12.00
2023,03,27,07,41,12.00
2023,03,27,07,42,12.00
2023,03,27,07,43,12.00
2023,03,27,07,44,12.00
2023,03,27,07,45,12.00
2023,03,27,07,46,12.00
2023,03,27,07,47,12.00
2023,03,27,07,48,12.40
2023,03,27,07,49,14.00
2023,03,27,07,50,14.00
2023,03,27,07,51,14.00
2023,03,27,07,52,14.00
2023,03,27,07,53,14.00
2023,03,27,07,54,14.00
2023,03,27,07,55,14.40
2023,03,27,07,56,16.00
2023,03,27,07,57,16.00
2023,03,27,07,58,16.00
2023,03,27,07,59,16.00
2023,03,27,08,00,16.00
2023,03,27,08,01,16.00
2023,03,27,08,02,16.00
2023,03,27,08,03,16.60
2023,03,27,08,04,18.00
2023,03,27,08,05,18.00
2023,03,27,08,06,18.00
2023,03,27,08,07,18.00
2023,03,27,08,08,18.00
2023,03,27,08,09,18.00
2023,03,27,08,10,18.30
2023,03,27,08,11,19.00
2023,03,27,08,12,19.00
2023,03,27,08,13,19.00
2023,03,27,08,14,19.00
2023,03,27,08,15,19.00
2023,03,27,08,16,19.00
2023,03,27,08,17,19.00
2023,03,27,08,18,19.80
2023,03,27,08,19,21.00
2023,03,27,08,20,21.00
2023,03,27,08,21,21.00
2023,03,27,08,22,21.00
2023,03,27,08,23,21.00
2023,03,27,08,24,21.00
2023,03,27,08,25,21.00
2023,03,27,08,26,21.00
2023,03,27,08,27,22.40
2023,03,27,08,28,23.00
2023,03,27,08,29,23.00
2023,03,27,08,30,23.00
2023,03,27,08,31,23.00
2023,03,27,08,32,23.00
2023,03,27,08,33,23.00
2023,03,27,08,34,23.00
2023,03,27,08,35,23.00
2023,03,27,08,36,23.10
2023,03,27,08,37,25.00
2023,03,27,08,38,25.00
2023,03,27,08,39,25.00
2023,03,27,08,40,25.00
2023,03,27,08,41,25.00
2023,03,27,08,42,25.00
2023,03,27,08,43,25.00
2023,03,27,08,44,25.20
2023,03,27,08,45,26.00
2023,03,27,08,46,26.00
2023,03,27,08,47,26.00
2023,03,27,08,48,26.00
2023,03,27,08,49,26.00
2023,03,27,08,50,26.00
2023,03,27,08,51,26.00
2023,03,27,08,52,26.00
2023,03,27,08,53,26.00
2023,03,27,08,54,26.00
2023,03,27,08,55,27.40
2023,03,27,08,56,28.00
2023,03,27,08,57,28.00
2023,03,27,08,58,28.00
2023,03,27,08,59,28.00
2023,03,27,09,00,28.00
2023,03,27,09,01,28.00
2023,03,27,09,02,28.00
2023,03,27,09,03,29.60
2023,03,27,09,04,30.00
2023,03,27,09,05,30.00
2023,03,27,09,06,30.00
2023,03,27,09,07,30.00
2023,03,27,09,08,30.00
2023,03,27,09,09,30.00
2023,03,27,09,10,30.00
2023,03,27,09,11,31.90
2023,03,27,09,12,32.00
2023,03,27,09,13,32.00
2023,03,27,09,14,32.00
2023,03,27,09,15,32.00
2023,03,27,09,16,32.00
2023,03,27,09,17,32.80
2023,03,27,09,18,33.00
2023,03,27,09,19,33.00
2023,03,27,09,20,33.00
2023,03,27,09,21,33.00
2023,03,27,09,22,33.00
2023,03,27,09,23,33.00
2023,03,27,09,24,33.00
2023,03,27,09,25,33.10
2023,03,27,09,26,35.00
2023,03,27,09,27,35.00
2023,03,27,09,28,35.00
2023,03,27,09,29,35.00
2023,03,27,09,30,35.00
2023,03,27,09,31,35.00
2023,03,27,09,32,35.10
2023,03,27,09,33,37.00
2023,03,27,09,34,37.00
2023,03,27,09,35,37.00
2023,03,27,09,36,37.00
2023,03,27,09,37,37.00
2023,03,27,09,38,37.00
2023,03,27,09,39,37.00
2023,03,27,09,40,37.00
2023,03,27,09,41,37.60
2023,03,27,09,42,39.00
2023,03,27,09,43,39.00
2023,03,27,09,44,39.00
2023,03,27,09,45,39.00
2023,03,27,09,46,39.00
2023,03,27,09,47,40.00
2023,03,27,09,48,40.00
2023,03,27,09,49,40.00
2023,03,27,09,50,41.10
2023,03,27,09,51,42.00
2023,03,27,09,52,40.40
2023,03,27,09,53,41.90
2023,03,27,09,54,42.00
2023,03,27,09,55,42.00
2023,03,27,09,56,42.00
2023,03,27,09,57,44.80
2023,03,27,09,58,51.70
2023,03,27,09,59,53.20
2023,03,27,10,00,60.80
2023,03,27,10,01,57.30
2023,03,27,10,02,74.70
2023,03,27,10,03,74.10
2023,03,27,10,04,63.30
2023,03,27,10,05,62.70
2023,03,27,10,06,79.50
2023,03,27,10,07,92.90
2023,03,27,10,08,93.50
2023,03,27,10,09,59.20
2023,03,27,10,10,59.90
2023,03,27,10,11,92.00
2023,03,27,10,12,114.70
2023,03,27,10,13,129.40
2023,03,27,10,14,123.80
2023,03,27,10,15,103.80
2023,03,27,10,16,115.10
2023,03,27,10,17,100.00
2023,03,27,10,18,72.70
2023,03,27,10,19,64.60
2023,03,27,10,20,62.00
2023,03,27,10,21,61.20
2023,03,27,10,22,61.40
2023,03,27,10,23,128.50
2023,03,27,10,24,137.10
2023,03,27,10,25,66.90
2023,03,27,10,26,43.30
2023,03,27,10,27,43.60
2023,03,27,10,28,44.20
2023,03,27,10,29,49.90
2023,03,27,10,30,60.50
2023,03,27,10,31,100.90
2023,03,27,10,32,178.00
2023,03,27,10,33,254.30
2023,03,27,10,34,328.60
2023,03,27,10,35,387.90
2023,03,27,10,36,434.90
2023,03,27,10,37,456.60
2023,03,27,10,38,468.00
2023,03,27,10,39,469.70
2023,03,27,10,40,473.70
2023,03,27,10,41,471.90
2023,03,27,10,42,480.20
2023,03,27,10,43,491.60
2023,03,27,10,44,492.90
2023,03,27,10,45,499.90
2023,03,27,10,46,494.70
2023,03,27,10,47,494.10
2023,03,27,10,48,492.70
2023,03,27,10,49,482.80
2023,03,27,10,50,485.30
2023,03,27,10,51,487.70
2023,03,27,10,52,474.00
2023,03,27,10,53,488.90
2023,03,27,10,54,506.70
2023,03,27,10,55,527.10
2023,03,27,10,56,540.30
2023,03,27,10,57,542.30
2023,03,27,10,58,546.40
2023,03,27,10,59,543.80
2023,03,27,11,00,545.00
2023,03,27,11,01,543.60
2023,03,27,11,02,546.30
2023,03,27,11,03,547.70
2023,03,27,11,04,545.00
2023,03,27,11,05,543.90
2023,03,27,11,06,538.10
2023,03,27,11,07,528.30
2023,03,27,11,08,528.90
2023,03,27,11,09,534.90
2023,03,27,11,10,542.60
2023,03,27,11,11,547.20
2023,03,27,11,12,549.30
2023,03,27,11,13,553.30
2023,03,27,11,14,555.00
2023,03,27,11,15,556.40
2023,03,27,11,16,558.60
2023,03,27,11,17,557.40
2023,03,27,11,18,562.30
2023,03,27,11,19,568.90
2023,03,27,11,20,572.70
2023,03,27,11,21,576.10
2023,03,27,11,22,580.40
2023,03,27,11,23,583.60
2023,03,27,11,24,584.00
2023,03,27,11,25,584.00
2023,03,27,11,26,584.00
2023,03,27,11,27,586.20
2023,03,27,11,28,590.70
2023,03,27,11,29,598.00
2023,03,27,11,30,604.90
2023,03,27,11,31,611.90
2023,03,27,11,32,621.20
2023,03,27,11,33,621.70
2023,03,27,11,34,622.20
2023,03,27,11,35,617.90
2023,03,27,11,36,617.10
2023,03,27,11,37,624.70
2023,03,27,11,38,619.90
2023,03,27,11,39,629.40
2023,03,27,11,40,631.00
2023,03,27,11,41,633.10
2023,03,27,11,42,637.10
2023,03,27,11,43,639.40
2023,03,27,11,44,641.60
2023,03,27,11,45,640.10
2023,03,27,11,46,640.50
2023,03,27,11,47,643.60
2023,03,27,11,48,645.00
2023,03,27,11,49,647.80
2023,03,27,11,50,645.20
2023,03,27,11,51,633.60
2023,03,27,11,52,617.90
2023,03,27,11,53,614.10
2023,03,27,11,54,608.70
2023,03,27,11,55,598.40
2023,03,27,11,56,624.60
2023,03,27,11,57,644.30
2023,03,27,11,58,645.90
2023,03,27,11,59,648.10
2023,03,27,12,00,634.60
2023,03,27,12,01,645.00
2023,03,27,12,02,648.10
2023,03,27,12,03,631.00
2023,03,27,12,04,634.70
2023,03,27,12,05,621.90
2023,03,27,12,06,625.60
2023,03,27,12,07,655.70
2023,03,27,12,08,657.90
2023,03,27,12,09,648.20
2023,03,27,12,10,653.80
2023,03,27,12,11,661.10
2023,03,27,12,12,665.40
2023,03,27,12,13,672.00
2023,03,27,12,14,656.10
2023,03,27,12,15,640.40
2023,03,27,12,16,638.10
2023,03,27,12,17,640.90
2023,03,27,12,18,636.70
2023,03,27,12,19,640.50
2023,03,27,12,20,664.10
2023,03,27,12,21,662.60
2023,03,27,12,22,663.10
2023,03,27,12,23,673.30
2023,03,27,12,24,683.40
2023,03,27,12,25,686.00
2023,03,27,12,26,680.50
2023,03,27,12,27,693.40
2023,03,27,12,28,702.10
2023,03,27,12,29,708.00
2023,03,27,12,30,708.70
2023,03,27,12,31,708.70
2023,03,27,12,32,708.00
2023,03,27,12,33,707.00
2023,03,27,12,34,706.70
2023,03,27,12,35,703.70
2023,03,27,12,36,707.90
2023,03,27,12,37,710.00
2023,03,27,12,38,711.10
2023,03,27,12,39,713.40
2023,03,27,12,40,712.40
2023,03,27,12,41,712.10
2023,03,27,12,42,712.00
2023,03,27,12,43,694.40
2023,03,27,12,44,679.60
2023,03,27,12,45,658.80
2023,03,27,12,46,674.10
2023,03,27,12,47,686.80
2023,03,27,12,48,684.90
2023,03,27,12,49,692.30
2023,03,27,12,50,687.60
2023,03,27,12,51,686.10
2023,03,27,12,52,669.60
2023,03,27,12,53,662.10
2023,03,27,12,54,664.40
2023,03,27,12,55,664.70
2023,03,27,12,56,679.90
2023,03,27,12,57,670.50
2023,03,27,12,58,699.40
2023,03,27,12,59,712.00
2023,03,27,13,00,714.30
2023,03,27,13,01,677.90
2023,03,27,13,02,650.10
2023,03,27,13,03,645.90
2023,03,27,13,04,667.90
2023,03,27,13,05,663.30
2023,03,27,13,06,659.90
2023,03,27,13,07,699.70
2023,03,27,13,08,721.90
2023,03,27,13,09,730.70
2023,03,27,13,10,738.40
2023,03,27,13,11,743.50
2023,03,27,13,12,748.30
2023,03,27,13,13,746.10
2023,03,27,13,14,745.70
2023,03,27,13,15,745.00
2023,03,27,13,16,742.20
2023,03,27,13,17,741.60
2023,03,27,13,18,740.00
2023,03,27,13,19,739.10
2023,03,27,13,20,739.10
2023,03,27,13,21,736.60
2023,03,27,13,22,729.30
2023,03,27,13,23,724.40
2023,03,27,13,24,726.60
2023,03,27,13,25,729.60
2023,03,27,13,26,732.70
2023,03,27,13,27,732.80
2023,03,27,13,28,733.70
2023,03,27,13,29,730.10
2023,03,27,13,30,730.70
2023,03,27,13,31,729.30
2023,03,27,13,32,728.40
2023,03,27,13,33,722.80
2023,03,27,13,34,716.50
2023,03,27,13,35,719.30
2023,03,27,13,36,725.60
2023,03,27,13,37,725.90
2023,03,27,13,38,722.40
2023,03,27,13,39,724.00
2023,03,27,13,40,724.90
2023,03,27,13,41,726.00
2023,03,27,13,42,724.60
2023,03,27,13,43,725.60
2023,03,27,13,44,727.60
2023,03,27,13,45,722.70
2023,03,27,13,46,726.00
2023,03,27,13,47,724.30
2023,03,27,13,48,723.10
2023,03,27,13,49,722.60
2023,03,27,13,50,722.00
2023,03,27,13,51,723.90
2023,03,27,13,52,724.00
2023,03,27,13,53,723.40
2023,03,27,13,54,721.60
2023,03,27,13,55,721.60
2023,03,27,13,56,722.00
2023,03,27,13,57,722.00
2023,03,27,13,58,722.00
2023,03,27,13,59,722.00
2023,03,27,14,00,722.00
2023,03,27,14,01,721.60
2023,03,27,14,02,721.60
2023,03,27,14,03,720.00
2023,03,27,14,04,720.60
2023,03,27,14,05,721.00
2023,03,27,14,06,720.60
2023,03,27,14,07,718.40
2023,03,27,14,08,717.90
2023,03,27,14,09,716.70
2023,03,27,14,10,716.30
2023,03,27,14,11,717.00
2023,03,27,14,12,715.10
2023,03,27,14,13,714.00
2023,03,27,14,14,714.00
2023,03,27,14,15,713.20
2023,03,27,14,16,713.10
2023,03,27,14,17,714.00
2023,03,27,14,18,714.00
2023,03,27,14,19,712.10
2023,03,27,14,20,711.70
2023,03,27,14,21,710.00
2023,03,27,14,22,710.90
2023,03,27,14,23,712.00
2023,03,27,14,24,710.60
2023,03,27,14,25,708.40
2023,03,27,14,26,707.90
2023,03,27,14,27,705.00
2023,03,27,14,28,705.00
2023,03,27,14,29,705.00
2023,03,27,14,30,705.00
2023,03,27,14,31,705.00
2023,03,27,14,32,703.40
2023,03,27,14,33,703.00
2023,03,27,14,34,703.00
2023,03,27,14,35,702.10
2023,03,27,14,36,699.10
2023,03,27,14,37,699.10
2023,03,27,14,38,698.60
2023,03,27,14,39,698.00
2023,03,27,14,40,697.90
2023,03,27,14,41,696.00
2023,03,27,14,42,695.40
2023,03,27,14,43,694.00
2023,03,27,14,44,692.40
2023,03,27,14,45,691.00
2023,03,27,14,46,689.40
2023,03,27,14,47,690.80
2023,03,27,14,48,688.60
2023,03,27,14,49,687.60
2023,03,27,14,50,688.10
2023,03,27,14,51,686.50
2023,03,27,14,52,684.70
2023,03,27,14,53,684.00
2023,03,27,14,54,682.10
2023,03,27,14,55,682.00
2023,03,27,14,56,681.40
2023,03,27,14,57,679.60
2023,03,27,14,58,679.00
2023,03,27,14,59,677.60
2023,03,27,15,00,678.60
2023,03,27,15,01,675.20
2023,03,27,15,02,673.40
2023,03,27,15,03,674.40
2023,03,27,15,04,673.00
2023,03,27,15,05,673.00
2023,03,27,15,06,671.00
2023,03,27,15,07,670.80
2023,03,27,15,08,670.10
2023,03,27,15,09,670.00
2023,03,27,15,10,668.70
2023,03,27,15,11,666.00
2023,03,27,15,12,666.00
2023,03,27,15,13,664.00
2023,03,27,15,14,663.00
2023,03,27,15,15,663.80
2023,03,27,15,16,661.00
2023,03,27,15,17,660.40
2023,03,27,15,18,659.00
2023,03,27,15,19,657.90
2023,03,27,15,20,657.00
2023,03,27,15,21,654.60
2023,03,27,15,22,652.10
2023,03,27,15,23,652.00
2023,03,27,15,24,651.40
2023,03,27,15,25,648.70
2023,03,27,15,26,647.00
2023,03,27,15,27,645.70
2023,03,27,15,28,643.40
2023,03,27,15,29,644.70
2023,03,27,15,30,641.30
2023,03,27,15,31,638.00
2023,03,27,15,32,637.10
2023,03,27,15,33,636.00
2023,03,27,15,34,635.30
2023,03,27,15,35,631.70
2023,03,27,15,36,629.10
2023,03,27,15,37,627.60
2023,03,27,15,38,625.40
2023,03,27,15,39,624.00
2023,03,27,15,40,624.00
2023,03,27,15,41,621.90
2023,03,27,15,42,621.00
2023,03,27,15,43,620.70
2023,03,27,15,44,617.00
2023,03,27,15,45,616.40
2023,03,27,15,46,614.20
2023,03,27,15,47,612.50
2023,03,27,15,48,610.60
2023,03,27,15,49,610.00
2023,03,27,15,50,606.10
2023,03,27,15,51,603.40
2023,03,27,15,52,603.80
2023,03,27,15,53,599.70
2023,03,27,15,54,596.90
2023,03,27,15,55,596.00
2023,03,27,15,56,592.90
2023,03,27,15,57,591.10
2023,03,27,15,58,590.60
2023,03,27,15,59,588.40
2023,03,27,16,00,586.10
2023,03,27,16,01,584.40
2023,03,27,16,02,581.30
2023,03,27,16,03,580.00
2023,03,27,16,04,578.10
2023,03,27,16,05,577.50
2023,03,27,16,06,574.40
2023,03,27,16,07,572.10
2023,03,27,16,08,570.40
2023,03,27,16,09,568.60
2023,03,27,16,10,566.40
2023,03,27,16,11,563.10
2023,03,27,16,12,561.00
2023,03,27,16,13,561.00
2023,03,27,16,14,558.40
2023,03,27,16,15,555.00
2023,03,27,16,16,554.30
2023,03,27,16,17,550.70
2023,03,27,16,18,548.00
2023,03,27,16,19,546.60
2023,03,27,16,20,545.00
2023,03,27,16,21,544.10
2023,03,27,16,22,541.90
2023,03,27,16,23,539.00
2023,03,27,16,24,538.00
2023,03,27,16,25,534.20
2023,03,27,16,26,532.60
2023,03,27,16,27,530.40
2023,03,27,16,28,528.10
2023,03,27,16,29,526.40
2023,03,27,16,30,523.30
2023,03,27,16,31,520.40
2023,03,27,16,32,519.90
2023,03,27,16,33,518.30
2023,03,27,16,34,514.40
2023,03,27,16,35,512.60
2023,03,27,16,36,509.90
2023,03,27,16,37,506.60
2023,03,27,16,38,503.60
2023,03,27,16,39,501.10
2023,03,27,16,40,500.30
2023,03,27,16,41,496.70
2023,03,27,16,42,494.30
2023,03,27,16,43,490.90
2023,03,27,16,44,488.00
2023,03,27,16,45,487.00
2023,03,27,16,46,483.20
2023,03,27,16,47,479.60
2023,03,27,16,48,477.40
2023,03,27,16,49,474.70
2023,03,27,16,50,471.90
2023,03,27,16,51,469.60
2023,03,27,16,52,468.20
2023,03,27,16,53,465.90
2023,03,27,16,54,461.40
2023,03,27,16,55,458.40
2023,03,27,16,56,455.80
2023,03,27,16,57,452.90
2023,03,27,16,58,449.30
2023,03,27,16,59,448.00
2023,03,27,17,00,445.10
2023,03,27,17,01,442.60
2023,03,27,17,02,440.00
2023,03,27,17,03,437.10
2023,03,27,17,04,433.90
2023,03,27,17,05,431.30
2023,03,27,17,06,429.40
2023,03,27,17,07,426.90
2023,03,27,17,08,423.60
2023,03,27,17,09,421.40
2023,03,27,17,10,418.70
2023,03,27,17,11,414.80
2023,03,27,17,12,411.00
2023,03,27,17,13,408.40
2023,03,27,17,14,406.10
2023,03,27,17,15,403.80
2023,03,27,17,16,402.40
2023,03,27,17,17,399.20
2023,03,27,17,18,396.50
2023,03,27,17,19,393.30
2023,03,27,17,20,390.40